Lexington Weather

Lexington, Massachusetts, USA

46°F
12/8/2022 3:46pm 
  • Lexington Conditions: Clear
  • Temperature: 46.0°F / 7.8°CColder 2.6°F than last hour.
  • Dew Point: 34.2°FDecreased 1.0°Fsince last hour.
  • Relative Humidity: 63%Increased 3.0% since last hour.
  • Wind: Wind from NNW NNW 4 mph, 10-min avg: 1 mph, gust: 9 mph
  • Barometer: 30.10 inRising 0.03  inHg/hr Rising Slowly
  • Visibility: 10 miles
  • Rain Today: 0.00 in
  •   

Warning: Undefined variable $rc in /homepages/6/d276339138/htdocs/weather/20190804/ssi/nwsProduct.php on line 323

Warning: Undefined variable $rc in /homepages/6/d276339138/htdocs/weather/20190804/ssi/nwsProduct.php on line 325

Warning: Undefined variable $rc in /homepages/6/d276339138/htdocs/weather/20190804/ssi/nwsProduct.php on line 323

Warning: Undefined variable $rc in /homepages/6/d276339138/htdocs/weather/20190804/ssi/nwsProduct.php on line 325

Warning: Undefined variable $rc in /homepages/6/d276339138/htdocs/weather/20190804/ssi/nwsProduct.php on line 323

Warning: Undefined variable $rc in /homepages/6/d276339138/htdocs/weather/20190804/ssi/nwsProduct.php on line 325

Warning: Undefined variable $rc in /homepages/6/d276339138/htdocs/weather/20190804/ssi/nwsProduct.php on line 323

Warning: Undefined variable $rc in /homepages/6/d276339138/htdocs/weather/20190804/ssi/nwsProduct.php on line 325

Warning: Undefined variable $rc in /homepages/6/d276339138/htdocs/weather/20190804/ssi/nwsProduct.php on line 323

Warning: Undefined variable $rc in /homepages/6/d276339138/htdocs/weather/20190804/ssi/nwsProduct.php on line 325

Warning: Undefined variable $rc in /homepages/6/d276339138/htdocs/weather/20190804/ssi/nwsProduct.php on line 323

Warning: Undefined variable $rc in /homepages/6/d276339138/htdocs/weather/20190804/ssi/nwsProduct.php on line 325

Warning: Undefined variable $rc in /homepages/6/d276339138/htdocs/weather/20190804/ssi/nwsProduct.php on line 323

Warning: Undefined variable $rc in /homepages/6/d276339138/htdocs/weather/20190804/ssi/nwsProduct.php on line 325

Regional Weather Roundup
for Boston, MA

        
000
ASUS41 KBOX 012110
RWRBOX

REGIONAL WEATHER ROUNDUP
NATIONAL WEATHER SERVICE BOSTON/NORTON MA
400 PM EST THU DEC 01 2022

NOTE:  "FAIR" INDICATES FEW OR NO CLOUDS BELOW 12,000 FEET WITH NO 
SIGNIFICANT WEATHER AND/OR OBSTRUCTIONS TO VISIBILITY.

MAZALL-012200-
EASTERN MASSACHUSETTS
  
CITY           SKY/WX    TMP DP  RH WIND       PRES   REMARKS
BOSTON         MOCLDY    41  17  38 W21G29    30.16R WCI  32          
BEVERLY        CLOUDY    39  18  42 W13G24    30.14R WCI  31          
LAWRENCE       CLOUDY    39  19  44 W10G18    30.15R                  
BEDFORD        MOCLDY    41  18  39 W23G33    30.15R WCI  31          
NORWOOD        CLOUDY    42  18  37 W18G28    30.17R                  
MARSHFIELD       N/A     41  16  36 W14G25    30.16R                  
PLYMOUTH       PTCLDY    41  17  38 W20G26    30.15R WCI  32          
TAUNTON          N/A    N/A N/A N/A MISG      30.18R                  
NEW BEDFORD    PTCLDY    41  19  41 W15G25    30.17R                  
$$

MAZALL-012200-
CAPE COD AND THE ISLANDS
  
CITY           SKY/WX    TMP DP  RH WIND       PRES   REMARKS
FALMOUTH       CLEAR     39  16  38 NW15G30   30.17R WCI  31          
HYANNIS        PTCLDY    40  16  37 W16G23    30.15R WCI  31          
CHATHAM        MOCLDY    42  16  34 W14G28    30.16R                  
PROVINCETOWN   MOCLDY    42  20  41 W26G35    30.15R WCI  32          
NANTUCKET      CLEAR     43  20  39 W15G24    30.17R                  
MARTHAS VNYRD  CLEAR     42  18  37 W21G35    30.18R                  
$$
 
MAZALL-012200-
CENTRAL AND WESTERN MASSACHUSETTS
  
CITY           SKY/WX    TMP DP  RH WIND       PRES   REMARKS
WORCESTER      CLOUDY    37  17  44 W18G31    30.15R WCI  27          
FITCHBURG      CLOUDY    38  18  44 W16G28    30.17R WCI  29          
ORANGE         CLOUDY    37  20  50 W9        30.19R WCI  30          
SPRINGFIELD    MOCLDY    38  18  43 NW21G31   30.20R WCI  28          
WESTFIELD      CLOUDY    39  18  42 NW18G30   30.23R WCI  30          
NORTH ADAMS    LGT SNOW  34  24  67 W17G29    30.24R WCI  23          
PITTSFIELD     CLOUDY    33  20  58 W20G32    30.21R WCI  21          
$$
 
RIZALL-012200-
RHODE ISLAND
  
CITY           SKY/WX    TMP DP  RH WIND       PRES   REMARKS
PROVIDENCE     PTCLDY    41  17  38 W22G28    30.20R WCI  31          
NEWPORT        CLEAR     39  18  42 W14G22    30.19R WCI  31          
BLOCK ISLAND   CLEAR     40  19  43 W13G23    30.23R                  
SMITHFIELD     PTCLDY    38  17  42 W15G23    30.18R WCI  29          
WESTERLY       CLEAR     42  16  34 VRB7G17   30.22R                  
$$
 
CTZALL-012200-
CONNECTICUT
  
CITY           SKY/WX    TMP DP  RH WIND       PRES   REMARKS
BRADLEY INTL   PTCLDY    40  18  41 NW13G25   30.23R                  
HARTFORD       PTCLDY    42  17  36 NW14G24   30.25R                  
BRIDGEPORT     CLEAR     41  19  41 W17G24    30.29R                  
DANBURY        CLEAR     41  16  36 W13       30.29R                  
GROTON         CLEAR     43  17  35 NW12G24   30.23R                  
NEW HAVEN      CLEAR     44  22  41 W10G18    30.27R                  
CHESTER        FAIR      41  16  36 VRB7G16   30.24R                  
MERIDEN        PTCLDY    41  16  36 NW12      30.26R                  
WILLIMANTIC    CLEAR     39  18  42 W9G20     30.22R                  
OXFORD         PTCLDY    38  17  42 W12G21    30.25R WCI  30          
$$

MEZ002-015-021-024-NHZ003-005-008-011-012-014-VTZ005-008-012200-
NORTHERN NEW ENGLAND
  
CITY           SKY/WX    TMP DP  RH WIND       PRES   REMARKS
PORTLAND ME    PTCLDY    36  21  54 W13G22    30.06R WCI  27          
BANGOR ME      MOCLDY    35  19  52 W10G20    29.96R WCI  27          
CONCORD NH     MOCLDY    36  21  54 W15G28    30.10R WCI  27          
MANCHESTER NH  MOCLDY    39  19  44 W10G23    30.12R                  
NASHUA NH      CLOUDY    39  18  42 W9        30.15R                  
PORTSMOUTH NH  MOCLDY    38  20  49 W17       30.11R WCI  28          
JAFFREY NH     CLOUDY    36  19  50 W13G18    30.12R WCI  27          
KEENE NH       LGT RAIN  37  21  52 NW13        N/A  WCI  29          
BURLINGTON VT  MOCLDY    36  17  46 NW10      30.17R WCI  28          
MT. WASHINGTON SNOW       7   7 100 W83G98      N/A  VSB 1/16WCI -26  
$$

NYZ052-076-012200-
EASTERN NEW YORK
  
CITY           SKY/WX    TMP DP  RH WIND       PRES   REMARKS
ALBANY         CLOUDY    38  21  50 W15G28    30.27R WCI  29          
NEW YORK CITY  PTCLDY    44  19  36 W16G30    30.32R                  
$$
 
ANZALL-012200-
MARINE OBSERVATIONS
  
STATION/POSITION TIME  TEMP    WIND        PRES    VSBY  WAVE
                       AIR SEA DIR/SP/G                  HT/PER
                 (UTC) (F)     (DEG/KT/KT) (MB)    (MI)  (FT/S)
BOSTON BUOY      2050      51  280/ 25/ 33 1020.9R         5/ 5
BUZZARDS BAY     2000   42     280/ 27/ 33 1021.7R
NANTUCKET SOUND  2050   44     290/ 23/ 29 1021.4          3/ 4
MASS BAY-STELLWA 1904   42 51  280/ 23/ 31 1016.5R  1 7/8  5/ 5
ISLE OF SHOALS   2000   40     280/ 26/ 29 1016.9R
S OF BLOCK IS    2056      55                N/A           9/ 7
$$

......................KEY.........................
  SKY/WX - SKY CONDITION/PRESENT WEATHER
  TMP    - TEMPERATURE IN FAHRENHEIT
  DWPT   - DEWPOINT IN FAHRENHEIT
  RH     - RELATIVE HUMIDITY IN PERCENT
  WIND   - DIRECTION AND SPEED IN MPH
  PRES   - MEAN SEA LEVEL PRESSURE IN INCHES OF HG
  WCI    - WIND CHILL INDEX
  VSB    - VISIBILITY IN MILES
  HX     - HEAT INDEX
  TC     - TEMPERATURE IN CELSIUS
  VRB    - VARIABLE WIND DIRECTION
  N/A    - NOT AVAILABLE
  
      

Other recent Regional Weather Roundups

Thu Dec 8, 3:10pm

Thu Dec 8, 2:10pm

Thu Dec 8, 1:10pm

Thu Dec 8, 12:10pm

Thu Dec 8, 11:10am

Thu Dec 8, 10:10am

Thu Dec 8, 9:10am

Thu Dec 8, 8:10am

Thu Dec 8, 7:10am

Thu Dec 8, 6:10am

Thu Dec 8, 5:10am

Thu Dec 8, 4:10am

Thu Dec 8, 3:10am

Thu Dec 8, 2:10am

Thu Dec 8, 1:10am

Thu Dec 8, 12:10am

Wed Dec 7, 11:10pm

Wed Dec 7, 10:10pm

Wed Dec 7, 9:10pm

Wed Dec 7, 8:10pm

Wed Dec 7, 7:10pm

Wed Dec 7, 6:10pm

Wed Dec 7, 5:10pm

Wed Dec 7, 4:10pm

Wed Dec 7, 3:10pm

Wed Dec 7, 2:10pm

Wed Dec 7, 1:10pm

Wed Dec 7, 12:10pm

Wed Dec 7, 11:10am

Wed Dec 7, 10:10am

Wed Dec 7, 9:10am

Wed Dec 7, 8:10am

Wed Dec 7, 7:10am

Wed Dec 7, 6:10am

Wed Dec 7, 5:10am

Wed Dec 7, 4:10am

Wed Dec 7, 3:10am

Wed Dec 7, 2:10am

Wed Dec 7, 1:10am

Wed Dec 7, 12:10am

Tue Dec 6, 11:10pm

Tue Dec 6, 10:10pm

Tue Dec 6, 9:10pm

Tue Dec 6, 8:10pm

Tue Dec 6, 7:10pm

Tue Dec 6, 6:10pm

Tue Dec 6, 5:10pm

Tue Dec 6, 4:10pm

Tue Dec 6, 3:10pm

Tue Dec 6, 2:10pm

Tue Dec 6, 1:10pm

Tue Dec 6, 12:10pm

Tue Dec 6, 11:10am

Tue Dec 6, 10:10am

Tue Dec 6, 9:10am

Tue Dec 6, 8:10am

Tue Dec 6, 7:10am

Tue Dec 6, 6:10am

Tue Dec 6, 5:10am

Tue Dec 6, 4:10am

Tue Dec 6, 3:10am

Tue Dec 6, 2:10am

Tue Dec 6, 1:10am

Tue Dec 6, 12:10am

Mon Dec 5, 11:10pm

Mon Dec 5, 10:10pm

Mon Dec 5, 9:10pm

Mon Dec 5, 8:10pm

Mon Dec 5, 7:10pm

Mon Dec 5, 6:10pm

Mon Dec 5, 5:10pm

Mon Dec 5, 4:10pm

Mon Dec 5, 3:10pm

Mon Dec 5, 2:10pm

Mon Dec 5, 1:10pm

Mon Dec 5, 12:10pm

Mon Dec 5, 11:10am

Mon Dec 5, 10:10am

Mon Dec 5, 9:10am

Mon Dec 5, 8:10am

Mon Dec 5, 7:10am

Mon Dec 5, 6:10am

Mon Dec 5, 5:10am

Mon Dec 5, 4:10am

Mon Dec 5, 3:10am

Mon Dec 5, 2:10am

Mon Dec 5, 1:10am

Mon Dec 5, 12:10am

Sun Dec 4, 11:10pm

Sun Dec 4, 10:10pm

Sun Dec 4, 9:10pm

Sun Dec 4, 8:10pm

Sun Dec 4, 7:10pm

Sun Dec 4, 6:10pm

Sun Dec 4, 5:10pm

Sun Dec 4, 4:10pm

Sun Dec 4, 3:10pm

Sun Dec 4, 2:10pm

Sun Dec 4, 1:10pm

Sun Dec 4, 12:10pm

Sun Dec 4, 11:10am

Sun Dec 4, 10:10am

Sun Dec 4, 9:10am

Sun Dec 4, 8:10am

Sun Dec 4, 7:10am

Sun Dec 4, 6:10am

Sun Dec 4, 5:10am

Sun Dec 4, 4:10am

Sun Dec 4, 3:10am

Sun Dec 4, 2:10am

Sun Dec 4, 1:10am

Sun Dec 4, 12:10am

Sat Dec 3, 11:10pm

Sat Dec 3, 10:10pm

Sat Dec 3, 9:10pm

Sat Dec 3, 8:10pm

Sat Dec 3, 7:10pm

Sat Dec 3, 6:10pm

Sat Dec 3, 5:10pm

Sat Dec 3, 4:10pm

Sat Dec 3, 3:10pm

Sat Dec 3, 2:10pm

Sat Dec 3, 1:10pm

Sat Dec 3, 12:10pm

Sat Dec 3, 11:10am

Sat Dec 3, 10:10am

Sat Dec 3, 9:10am

Sat Dec 3, 8:10am

Sat Dec 3, 7:10am

Sat Dec 3, 6:10am

Sat Dec 3, 5:10am

Sat Dec 3, 4:10am

Sat Dec 3, 3:10am

Sat Dec 3, 2:10am

Sat Dec 3, 1:10am

Sat Dec 3, 12:10am

Fri Dec 2, 11:10pm

Fri Dec 2, 10:10pm

Fri Dec 2, 9:10pm

Fri Dec 2, 8:10pm

Fri Dec 2, 7:10pm

Fri Dec 2, 6:10pm

Fri Dec 2, 5:10pm

Fri Dec 2, 4:10pm

Fri Dec 2, 3:10pm

Fri Dec 2, 2:10pm

Fri Dec 2, 1:10pm

Fri Dec 2, 12:10pm

Fri Dec 2, 11:10am

Fri Dec 2, 10:10am

Fri Dec 2, 9:10am

Fri Dec 2, 8:10am

Fri Dec 2, 7:10am

Fri Dec 2, 6:10am

Fri Dec 2, 5:10am

Fri Dec 2, 4:10am

Fri Dec 2, 3:10am

Fri Dec 2, 2:10am

Fri Dec 2, 1:10am

Fri Dec 2, 12:10am

Thu Dec 1, 11:10pm

Thu Dec 1, 10:10pm

Thu Dec 1, 9:10pm

Thu Dec 1, 8:10pm

Thu Dec 1, 7:10pm

Thu Dec 1, 6:10pm

Thu Dec 1, 5:10pm

Meta data:

ID: b406a823-a415-499a-b0ab-6e7ba46c5211
Link: https://api.weather.gov/products/b406a823-a415-499a-b0ab-6e7ba46c5211